Year,Month,Day,Hour,Minute,Value (Times are PST for temperature in C)
2007,03,17,00,00,6.90
2007,03,17,00,01,6.90
2007,03,17,00,02,6.90
2007,03,17,00,03,6.80
2007,03,17,00,04,6.80
2007,03,17,00,05,6.80
2007,03,17,00,06,6.80
2007,03,17,00,07,6.70
2007,03,17,00,08,6.70
2007,03,17,00,09,6.70
2007,03,17,00,10,6.60
2007,03,17,00,11,6.60
2007,03,17,00,12,6.60
2007,03,17,00,13,6.60
2007,03,17,00,14,6.60
2007,03,17,00,15,6.50
2007,03,17,00,16,6.50
2007,03,17,00,17,6.50
2007,03,17,00,18,6.50
2007,03,17,00,19,6.50
2007,03,17,00,20,6.40
2007,03,17,00,21,6.40
2007,03,17,00,22,6.40
2007,03,17,00,23,6.40
2007,03,17,00,24,6.40
2007,03,17,00,25,6.40
2007,03,17,00,26,6.30
2007,03,17,00,27,6.30
2007,03,17,00,28,6.30
2007,03,17,00,29,6.30
2007,03,17,00,30,6.30
2007,03,17,00,31,6.20
2007,03,17,00,32,6.20
2007,03,17,00,33,6.20
2007,03,17,00,34,6.20
2007,03,17,00,35,6.20
2007,03,17,00,36,6.10
2007,03,17,00,37,6.10
2007,03,17,00,38,6.10
2007,03,17,00,39,6.10
2007,03,17,00,40,6.10
2007,03,17,00,41,6.10
2007,03,17,00,42,6.10
2007,03,17,00,43,6.10
2007,03,17,00,44,6.10
2007,03,17,00,45,6.10
2007,03,17,00,46,6.10
2007,03,17,00,47,6.00
2007,03,17,00,48,6.00
2007,03,17,00,49,5.90
2007,03,17,00,50,5.90
2007,03,17,00,51,5.90
2007,03,17,00,52,5.80
2007,03,17,00,53,5.80
2007,03,17,00,54,5.80
2007,03,17,00,55,5.70
2007,03,17,00,56,5.70
2007,03,17,00,57,5.70
2007,03,17,00,58,5.70
2007,03,17,00,59,5.70
2007,03,17,01,00,5.70
2007,03,17,01,01,5.70
2007,03,17,01,02,5.70
2007,03,17,01,03,5.70
2007,03,17,01,04,5.70
2007,03,17,01,05,5.80
2007,03,17,01,06,5.80
2007,03,17,01,07,5.80
2007,03,17,01,08,5.80
2007,03,17,01,09,5.80
2007,03,17,01,10,5.90
2007,03,17,01,11,5.90
2007,03,17,01,12,5.90
2007,03,17,01,13,5.90
2007,03,17,01,14,5.90
2007,03,17,01,15,5.90
2007,03,17,01,16,5.90
2007,03,17,01,17,6.00
2007,03,17,01,18,6.00
2007,03,17,01,19,6.00
2007,03,17,01,20,6.10
2007,03,17,01,21,6.10
2007,03,17,01,22,6.10
2007,03,17,01,23,6.10
2007,03,17,01,24,6.10
2007,03,17,01,25,6.10
2007,03,17,01,26,6.20
2007,03,17,01,27,6.20
2007,03,17,01,28,6.20
2007,03,17,01,29,6.20
2007,03,17,01,30,6.20
2007,03,17,01,31,6.20
2007,03,17,01,32,6.30
2007,03,17,01,33,6.30
2007,03,17,01,34,6.30
2007,03,17,01,35,6.40
2007,03,17,01,36,6.40
2007,03,17,01,37,6.40
2007,03,17,01,38,6.40
2007,03,17,01,39,6.40
2007,03,17,01,40,6.50
2007,03,17,01,41,6.50
2007,03,17,01,42,6.60
2007,03,17,01,43,6.60
2007,03,17,01,44,6.60
2007,03,17,01,45,6.60
2007,03,17,01,46,6.60
2007,03,17,01,47,6.50
2007,03,17,01,48,6.50
2007,03,17,01,49,6.40
2007,03,17,01,50,6.30
2007,03,17,01,51,6.30
2007,03,17,01,52,6.30
2007,03,17,01,53,6.30
2007,03,17,01,54,6.30
2007,03,17,01,55,6.30
2007,03,17,01,56,6.30
2007,03,17,01,57,6.20
2007,03,17,01,58,6.30
2007,03,17,01,59,6.30
2007,03,17,02,00,6.30
2007,03,17,02,01,6.30
2007,03,17,02,02,6.30
2007,03,17,02,03,6.30
2007,03,17,02,04,6.40
2007,03,17,02,05,6.40
2007,03,17,02,06,6.40
2007,03,17,02,07,6.40
2007,03,17,02,08,6.40
2007,03,17,02,09,6.40
2007,03,17,02,10,6.40
2007,03,17,02,11,6.30
2007,03,17,02,12,6.30
2007,03,17,02,13,6.30
2007,03,17,02,14,6.30
2007,03,17,02,15,6.30
2007,03,17,02,16,6.20
2007,03,17,02,17,6.20
2007,03,17,02,18,6.20
2007,03,17,02,19,6.20
2007,03,17,02,20,6.20
2007,03,17,02,21,6.20
2007,03,17,02,22,6.20
2007,03,17,02,23,6.20
2007,03,17,02,24,6.20
2007,03,17,02,25,6.20
2007,03,17,02,26,6.20
2007,03,17,02,27,6.20
2007,03,17,02,28,6.20
2007,03,17,02,29,6.20
2007,03,17,02,30,6.20
2007,03,17,02,31,6.20
2007,03,17,02,32,6.30
2007,03,17,02,33,6.30
2007,03,17,02,34,6.30
2007,03,17,02,35,6.30
2007,03,17,02,36,6.30
2007,03,17,02,37,6.30
2007,03,17,02,38,6.30
2007,03,17,02,39,6.30
2007,03,17,02,40,6.30
2007,03,17,02,41,6.30
2007,03,17,02,42,6.30
2007,03,17,02,43,6.30
2007,03,17,02,44,6.30
2007,03,17,02,45,6.40
2007,03,17,02,46,6.40
2007,03,17,02,47,6.40
2007,03,17,02,48,6.40
2007,03,17,02,49,6.40
2007,03,17,02,50,6.40
2007,03,17,02,51,6.40
2007,03,17,02,52,6.50
2007,03,17,02,53,6.50
2007,03,17,02,54,6.50
2007,03,17,02,55,6.50
2007,03,17,02,56,6.50
2007,03,17,02,57,6.50
2007,03,17,02,58,6.50
2007,03,17,02,59,6.50
2007,03,17,03,00,6.40
2007,03,17,03,01,6.40
2007,03,17,03,02,6.40
2007,03,17,03,03,6.40
2007,03,17,03,04,6.40
2007,03,17,03,05,6.50
2007,03,17,03,06,6.60
2007,03,17,03,07,6.60
2007,03,17,03,08,6.70
2007,03,17,03,09,6.70
2007,03,17,03,10,6.80
2007,03,17,03,11,6.80
2007,03,17,03,12,6.80
2007,03,17,03,13,6.70
2007,03,17,03,14,6.70
2007,03,17,03,15,6.80
2007,03,17,03,16,6.80
2007,03,17,03,17,6.80
2007,03,17,03,18,6.80
2007,03,17,03,19,6.80
2007,03,17,03,20,6.80
2007,03,17,03,21,6.90
2007,03,17,03,22,6.90
2007,03,17,03,23,6.90
2007,03,17,03,24,6.90
2007,03,17,03,25,7.00
2007,03,17,03,26,7.00
2007,03,17,03,27,7.00
2007,03,17,03,28,7.10
2007,03,17,03,29,7.10
2007,03,17,03,30,7.10
2007,03,17,03,31,7.20
2007,03,17,03,32,7.20
2007,03,17,03,33,7.20
2007,03,17,03,34,7.20
2007,03,17,03,35,7.20
2007,03,17,03,36,7.20
2007,03,17,03,37,7.30
2007,03,17,03,38,7.30
2007,03,17,03,39,7.30
2007,03,17,03,40,7.40
2007,03,17,03,41,7.40
2007,03,17,03,42,7.40
2007,03,17,03,43,7.50
2007,03,17,03,44,7.60
2007,03,17,03,45,7.80
2007,03,17,03,46,7.90
2007,03,17,03,47,8.10
2007,03,17,03,48,8.20
2007,03,17,03,49,8.20
2007,03,17,03,50,8.30
2007,03,17,03,51,8.30
2007,03,17,03,52,8.40
2007,03,17,03,53,8.40
2007,03,17,03,54,8.40
2007,03,17,03,55,8.50
2007,03,17,03,56,8.50
2007,03,17,03,57,8.50
2007,03,17,03,58,8.60
2007,03,17,03,59,8.60
2007,03,17,04,00,8.60
2007,03,17,04,01,8.70
2007,03,17,04,02,8.70
2007,03,17,04,03,8.70
2007,03,17,04,04,8.70
2007,03,17,04,05,8.70
2007,03,17,04,06,8.70
2007,03,17,04,07,8.80
2007,03,17,04,08,8.80
2007,03,17,04,09,8.80
2007,03,17,04,10,8.80
2007,03,17,04,11,8.80
2007,03,17,04,12,8.80
2007,03,17,04,13,8.80
2007,03,17,04,14,8.80
2007,03,17,04,15,8.90
2007,03,17,04,16,8.90
2007,03,17,04,17,8.90
2007,03,17,04,18,8.90
2007,03,17,04,19,8.90
2007,03,17,04,20,8.80
2007,03,17,04,21,8.80
2007,03,17,04,22,8.80
2007,03,17,04,23,8.80
2007,03,17,04,24,8.80
2007,03,17,04,25,8.80
2007,03,17,04,26,8.70
2007,03,17,04,27,8.70
2007,03,17,04,28,8.70
2007,03,17,04,29,8.60
2007,03,17,04,30,8.60
2007,03,17,04,31,8.60
2007,03,17,04,32,8.60
2007,03,17,04,33,8.60
2007,03,17,04,34,8.60
2007,03,17,04,35,8.60
2007,03,17,04,36,8.70
2007,03,17,04,37,8.70
2007,03,17,04,38,8.80
2007,03,17,04,39,8.80
2007,03,17,04,40,8.90
2007,03,17,04,41,8.90
2007,03,17,04,42,9.00
2007,03,17,04,43,9.00
2007,03,17,04,44,9.00
2007,03,17,04,45,9.10
2007,03,17,04,46,9.10
2007,03,17,04,47,9.10
2007,03,17,04,48,9.10
2007,03,17,04,49,9.10
2007,03,17,04,50,9.20
2007,03,17,04,51,9.20
2007,03,17,04,52,9.20
2007,03,17,04,53,9.20
2007,03,17,04,54,9.20
2007,03,17,04,55,9.20
2007,03,17,04,56,9.20
2007,03,17,04,57,9.20
2007,03,17,04,58,9.30
2007,03,17,04,59,9.30
2007,03,17,05,00,9.30
2007,03,17,05,01,9.20
2007,03,17,05,02,9.20
2007,03,17,05,03,9.20
2007,03,17,05,04,9.20
2007,03,17,05,05,9.10
2007,03,17,05,06,9.10
2007,03,17,05,07,9.10
2007,03,17,05,08,9.00
2007,03,17,05,09,9.00
2007,03,17,05,10,9.00
2007,03,17,05,11,9.00
2007,03,17,05,12,9.00
2007,03,17,05,13,9.00
2007,03,17,05,14,9.00
2007,03,17,05,15,8.90
2007,03,17,05,16,8.90
2007,03,17,05,17,8.90
2007,03,17,05,18,8.90
2007,03,17,05,19,8.90
2007,03,17,05,20,8.90
2007,03,17,05,21,8.80
2007,03,17,05,22,8.80
2007,03,17,05,23,8.80
2007,03,17,05,24,8.80
2007,03,17,05,25,8.80
2007,03,17,05,26,8.80
2007,03,17,05,27,8.80
2007,03,17,05,28,8.80
2007,03,17,05,29,8.80
2007,03,17,05,30,8.80
2007,03,17,05,31,8.70
2007,03,17,05,32,8.70
2007,03,17,05,33,8.70
2007,03,17,05,34,8.70
2007,03,17,05,35,8.70
2007,03,17,05,36,8.70
2007,03,17,05,37,8.70
2007,03,17,05,38,8.70
2007,03,17,05,39,8.70
2007,03,17,05,40,8.70
2007,03,17,05,41,8.70
2007,03,17,05,42,8.70
2007,03,17,05,43,8.70
2007,03,17,05,44,8.70
2007,03,17,05,45,8.70
2007,03,17,05,46,8.70
2007,03,17,05,47,8.70
2007,03,17,05,48,8.70
2007,03,17,05,49,8.70
2007,03,17,05,50,8.70
2007,03,17,05,51,8.70
2007,03,17,05,52,8.70
2007,03,17,05,53,8.70
2007,03,17,05,54,8.70
2007,03,17,05,55,8.70
2007,03,17,05,56,8.70
2007,03,17,05,57,8.60
2007,03,17,05,58,8.60
2007,03,17,05,59,8.60
2007,03,17,06,00,8.60
2007,03,17,06,01,8.60
2007,03,17,06,02,8.60
2007,03,17,06,03,8.50
2007,03,17,06,04,8.50
2007,03,17,06,05,8.40
2007,03,17,06,06,8.40
2007,03,17,06,07,8.40
2007,03,17,06,08,8.40
2007,03,17,06,09,8.40
2007,03,17,06,10,8.40
2007,03,17,06,11,8.50
2007,03,17,06,12,8.50
2007,03,17,06,13,8.60
2007,03,17,06,14,8.60
2007,03,17,06,15,8.60
2007,03,17,06,16,8.60
2007,03,17,06,17,8.60
2007,03,17,06,18,8.60
2007,03,17,06,19,8.60
2007,03,17,06,20,8.60
2007,03,17,06,21,8.60
2007,03,17,06,22,8.60
2007,03,17,06,23,8.60
2007,03,17,06,24,8.60
2007,03,17,06,25,8.60
2007,03,17,06,26,8.60
2007,03,17,06,27,8.60
2007,03,17,06,28,8.60
2007,03,17,06,29,8.60
2007,03,17,06,30,8.60
2007,03,17,06,31,8.60
2007,03,17,06,32,8.50
2007,03,17,06,33,8.50
2007,03,17,06,34,8.50
2007,03,17,06,35,8.50
2007,03,17,06,36,8.40
2007,03,17,06,37,8.40
2007,03,17,06,38,8.40
2007,03,17,06,39,8.40
2007,03,17,06,40,8.40
2007,03,17,06,41,8.40
2007,03,17,06,42,8.40
2007,03,17,06,43,8.40
2007,03,17,06,44,8.40
2007,03,17,06,45,8.40
2007,03,17,06,46,8.40
2007,03,17,06,47,8.40
2007,03,17,06,48,8.40
2007,03,17,06,49,8.40
2007,03,17,06,50,8.40
2007,03,17,06,51,8.40
2007,03,17,06,52,8.40
2007,03,17,06,53,8.50
2007,03,17,06,54,8.50
2007,03,17,06,55,8.50
2007,03,17,06,56,8.60
2007,03,17,06,57,8.50
2007,03,17,06,58,8.50
2007,03,17,06,59,8.60
2007,03,17,07,00,8.60
2007,03,17,07,01,8.60
2007,03,17,07,02,8.60
2007,03,17,07,03,8.60
2007,03,17,07,04,8.60
2007,03,17,07,05,8.60
2007,03,17,07,06,8.60
2007,03,17,07,07,8.60
2007,03,17,07,08,8.60
2007,03,17,07,09,8.60
2007,03,17,07,10,8.60
2007,03,17,07,11,8.60
2007,03,17,07,12,8.60
2007,03,17,07,13,8.60
2007,03,17,07,14,8.60
2007,03,17,07,15,8.60
2007,03,17,07,16,8.60
2007,03,17,07,17,8.70
2007,03,17,07,18,8.70
2007,03,17,07,19,8.70
2007,03,17,07,20,8.70
2007,03,17,07,21,8.70
2007,03,17,07,22,8.80
2007,03,17,07,23,8.80
2007,03,17,07,24,8.80
2007,03,17,07,25,8.80
2007,03,17,07,26,8.80
2007,03,17,07,27,8.80
2007,03,17,07,28,8.80
2007,03,17,07,29,8.80
2007,03,17,07,30,8.80
2007,03,17,07,31,8.80
2007,03,17,07,32,8.80
2007,03,17,07,33,8.80
2007,03,17,07,34,8.70
2007,03,17,07,35,8.70
2007,03,17,07,36,8.70
2007,03,17,07,37,8.70
2007,03,17,07,38,8.70
2007,03,17,07,39,8.70
2007,03,17,07,40,8.70
2007,03,17,07,41,8.70
2007,03,17,07,42,8.70
2007,03,17,07,43,8.70
2007,03,17,07,44,8.70
2007,03,17,07,45,8.70
2007,03,17,07,46,8.70
2007,03,17,07,47,8.70
2007,03,17,07,48,8.70
2007,03,17,07,49,8.70
2007,03,17,07,50,8.70
2007,03,17,07,51,8.70
2007,03,17,07,52,8.70
2007,03,17,07,53,8.70
2007,03,17,07,54,8.70
2007,03,17,07,55,8.70
2007,03,17,07,56,8.70
2007,03,17,07,57,8.70
2007,03,17,07,58,8.60
2007,03,17,07,59,8.60
2007,03,17,08,00,8.60
2007,03,17,08,01,8.60
2007,03,17,08,02,8.60
2007,03,17,08,03,8.60
2007,03,17,08,04,8.60
2007,03,17,08,05,8.60
2007,03,17,08,06,8.60
2007,03,17,08,07,8.60
2007,03,17,08,08,8.60
2007,03,17,08,09,8.60
2007,03,17,08,10,8.60
2007,03,17,08,11,8.60
2007,03,17,08,12,8.60
2007,03,17,08,13,8.60
2007,03,17,08,14,8.60
2007,03,17,08,15,8.60
2007,03,17,08,16,8.60
2007,03,17,08,17,8.60
2007,03,17,08,18,8.60
2007,03,17,08,19,8.60
2007,03,17,08,20,8.60
2007,03,17,08,21,8.60
2007,03,17,08,22,8.60
2007,03,17,08,23,8.60
2007,03,17,08,24,8.60
2007,03,17,08,25,8.60
2007,03,17,08,26,8.60
2007,03,17,08,27,8.60
2007,03,17,08,28,8.60
2007,03,17,08,29,8.70
2007,03,17,08,30,8.70
2007,03,17,08,31,8.60
2007,03,17,08,32,8.70
2007,03,17,08,33,8.70
2007,03,17,08,34,8.70
2007,03,17,08,35,8.70
2007,03,17,08,36,8.70
2007,03,17,08,37,8.70
2007,03,17,08,38,8.70
2007,03,17,08,39,8.70
2007,03,17,08,40,8.70
2007,03,17,08,41,8.70
2007,03,17,08,42,8.70
2007,03,17,08,43,8.70
2007,03,17,08,44,8.70
2007,03,17,08,45,8.70
2007,03,17,08,46,8.70
2007,03,17,08,47,8.70
2007,03,17,08,48,8.70
2007,03,17,08,49,8.70
2007,03,17,08,50,8.70
2007,03,17,08,51,8.70
2007,03,17,08,52,8.80
2007,03,17,08,53,8.80
2007,03,17,08,54,8.80
2007,03,17,08,55,8.80
2007,03,17,08,56,8.80
2007,03,17,08,57,8.80
2007,03,17,08,58,8.80
2007,03,17,08,59,8.80
2007,03,17,09,00,8.80
2007,03,17,09,01,8.80
2007,03,17,09,02,8.90
2007,03,17,09,03,8.90
2007,03,17,09,04,8.90
2007,03,17,09,05,8.90
2007,03,17,09,06,8.90
2007,03,17,09,07,8.90
2007,03,17,09,08,8.90
2007,03,17,09,09,9.00
2007,03,17,09,10,9.00
2007,03,17,09,11,9.00
2007,03,17,09,12,9.00
2007,03,17,09,13,9.00
2007,03,17,09,14,9.00
2007,03,17,09,15,9.00
2007,03,17,09,16,9.00
2007,03,17,09,17,9.00
2007,03,17,09,18,9.00
2007,03,17,09,19,9.00
2007,03,17,09,20,9.00
2007,03,17,09,21,9.00
2007,03,17,09,22,9.00
2007,03,17,09,23,9.00
2007,03,17,09,24,9.00
2007,03,17,09,25,9.00
2007,03,17,09,26,9.00
2007,03,17,09,27,9.00
2007,03,17,09,28,9.00
2007,03,17,09,29,8.90
2007,03,17,09,30,8.90
2007,03,17,09,31,8.90
2007,03,17,09,32,8.90
2007,03,17,09,33,8.90
2007,03,17,09,34,8.90
2007,03,17,09,35,8.90
2007,03,17,09,36,8.90
2007,03,17,09,37,8.90
2007,03,17,09,38,8.90
2007,03,17,09,39,8.90
2007,03,17,09,40,8.90
2007,03,17,09,41,8.90
2007,03,17,09,42,8.90
2007,03,17,09,43,8.90
2007,03,17,09,44,8.90
2007,03,17,09,45,8.90
2007,03,17,09,46,8.90
2007,03,17,09,47,8.90
2007,03,17,09,48,8.90
2007,03,17,09,49,8.90
2007,03,17,09,50,8.90
2007,03,17,09,51,8.90
2007,03,17,09,52,8.90
2007,03,17,09,53,8.90
2007,03,17,09,54,8.90
2007,03,17,09,55,8.90
2007,03,17,09,56,8.90
2007,03,17,09,57,8.90
2007,03,17,09,58,8.90
2007,03,17,09,59,8.90
2007,03,17,10,00,8.90
2007,03,17,10,01,8.90
2007,03,17,10,02,8.90
2007,03,17,10,03,8.90
2007,03,17,10,04,8.90
2007,03,17,10,05,8.90
2007,03,17,10,06,8.90
2007,03,17,10,07,8.90
2007,03,17,10,08,8.90
2007,03,17,10,09,8.90
2007,03,17,10,10,8.90
2007,03,17,10,11,8.90
2007,03,17,10,12,8.90
2007,03,17,10,13,8.90
2007,03,17,10,14,8.90
2007,03,17,10,15,8.90
2007,03,17,10,16,8.90
2007,03,17,10,17,9.00
2007,03,17,10,18,9.00
2007,03,17,10,19,9.00
2007,03,17,10,20,9.00
2007,03,17,10,21,9.00
2007,03,17,10,22,9.00
2007,03,17,10,23,9.00
2007,03,17,10,24,9.10
2007,03,17,10,25,9.10
2007,03,17,10,26,9.10
2007,03,17,10,27,9.10
2007,03,17,10,28,9.10
2007,03,17,10,29,9.10
2007,03,17,10,30,9.10
2007,03,17,10,31,9.10
2007,03,17,10,32,9.10
2007,03,17,10,33,9.10
2007,03,17,10,34,9.10
2007,03,17,10,35,9.10
2007,03,17,10,36,9.10
2007,03,17,10,37,9.10
2007,03,17,10,38,9.10
2007,03,17,10,39,9.10
2007,03,17,10,40,9.10
2007,03,17,10,41,9.10
2007,03,17,10,42,9.10
2007,03,17,10,43,9.20
2007,03,17,10,44,9.20
2007,03,17,10,45,9.20
2007,03,17,10,46,9.20
2007,03,17,10,47,9.20
2007,03,17,10,48,9.20
2007,03,17,10,49,9.20
2007,03,17,10,50,9.20
2007,03,17,10,51,9.20
2007,03,17,10,52,9.20
2007,03,17,10,53,9.20
2007,03,17,10,54,9.20
2007,03,17,10,55,9.20
2007,03,17,10,56,9.20
2007,03,17,10,57,9.20
2007,03,17,10,58,9.20
2007,03,17,10,59,9.20
2007,03,17,11,00,9.20
2007,03,17,11,01,9.20
2007,03,17,11,02,9.20
2007,03,17,11,03,9.20
2007,03,17,11,04,9.20
2007,03,17,11,05,9.20
2007,03,17,11,06,9.20
2007,03,17,11,07,9.20
2007,03,17,11,08,9.20
2007,03,17,11,09,9.20
2007,03,17,11,10,9.30
2007,03,17,11,11,9.30
2007,03,17,11,12,9.20
2007,03,17,11,13,9.20
2007,03,17,11,14,9.20
2007,03,17,11,15,9.30
2007,03,17,11,16,9.20
2007,03,17,11,17,9.20
2007,03,17,11,18,9.20
2007,03,17,11,19,9.20
2007,03,17,11,20,9.20
2007,03,17,11,21,9.20
2007,03,17,11,22,9.20
2007,03,17,11,23,9.20
2007,03,17,11,24,9.20
2007,03,17,11,25,9.20
2007,03,17,11,26,9.10
2007,03,17,11,27,9.10
2007,03,17,11,28,9.10
2007,03,17,11,29,9.10
2007,03,17,11,30,9.10
2007,03,17,11,31,9.10
2007,03,17,11,32,9.10
2007,03,17,11,33,9.10
2007,03,17,11,34,9.10
2007,03,17,11,35,9.10
2007,03,17,11,36,9.10
2007,03,17,11,37,9.10
2007,03,17,11,38,9.10
2007,03,17,11,39,9.10
2007,03,17,11,40,9.20
2007,03,17,11,41,9.20
2007,03,17,11,42,9.20
2007,03,17,11,43,9.20
2007,03,17,11,44,9.20
2007,03,17,11,45,9.20
2007,03,17,11,46,9.20
2007,03,17,11,47,9.20
2007,03,17,11,48,9.20
2007,03,17,11,49,9.20
2007,03,17,11,50,9.20
2007,03,17,11,51,9.20
2007,03,17,11,52,9.20
2007,03,17,11,53,9.10
2007,03,17,11,54,9.10
2007,03,17,11,55,9.10
2007,03,17,11,56,9.10
2007,03,17,11,57,9.00
2007,03,17,11,58,9.00
2007,03,17,11,59,9.00
2007,03,17,12,00,9.00
2007,03,17,12,01,9.10
2007,03,17,12,02,9.10
2007,03,17,12,03,9.10
2007,03,17,12,04,9.10
2007,03,17,12,05,9.10
2007,03,17,12,06,9.10
2007,03,17,12,07,9.10
2007,03,17,12,08,9.10
2007,03,17,12,09,9.10
2007,03,17,12,10,9.10
2007,03,17,12,11,9.10
2007,03,17,12,12,9.10
2007,03,17,12,13,9.10
2007,03,17,12,14,9.10
2007,03,17,12,15,9.10
2007,03,17,12,16,9.10
2007,03,17,12,17,9.10
2007,03,17,12,18,9.10
2007,03,17,12,19,9.00
2007,03,17,12,20,9.00
2007,03,17,12,21,9.10
2007,03,17,12,22,9.10
2007,03,17,12,23,9.10
2007,03,17,12,24,9.10
2007,03,17,12,25,9.00
2007,03,17,12,26,9.00
2007,03,17,12,27,9.00
2007,03,17,12,28,9.00
2007,03,17,12,29,9.00
2007,03,17,12,30,9.00
2007,03,17,12,31,9.00
2007,03,17,12,32,9.10
2007,03,17,12,33,9.10
2007,03,17,12,34,9.10
2007,03,17,12,35,9.10
2007,03,17,12,36,9.10
2007,03,17,12,37,9.10
2007,03,17,12,38,9.10
2007,03,17,12,39,9.00
2007,03,17,12,40,9.10
2007,03,17,12,41,9.00
2007,03,17,12,42,9.00
2007,03,17,12,43,9.00
2007,03,17,12,44,9.00
2007,03,17,12,45,9.00
2007,03,17,12,46,9.00
2007,03,17,12,47,9.00
2007,03,17,12,48,9.10
2007,03,17,12,49,9.10
2007,03,17,12,50,9.10
2007,03,17,12,51,9.10
2007,03,17,12,52,9.10
2007,03,17,12,53,9.10
2007,03,17,12,54,9.10
2007,03,17,12,55,9.10
2007,03,17,12,56,9.10
2007,03,17,12,57,9.10
2007,03,17,12,58,9.10
2007,03,17,12,59,9.10
2007,03,17,13,00,9.10
2007,03,17,13,01,9.10
2007,03,17,13,02,9.10
2007,03,17,13,03,9.10
2007,03,17,13,04,9.10
2007,03,17,13,05,9.10
2007,03,17,13,06,9.10
2007,03,17,13,07,9.10
2007,03,17,13,08,9.10
2007,03,17,13,09,9.10
2007,03,17,13,10,9.10
2007,03,17,13,11,9.10
2007,03,17,13,12,9.10
2007,03,17,13,13,9.10
2007,03,17,13,14,9.10
2007,03,17,13,15,9.10
2007,03,17,13,16,9.10
2007,03,17,13,17,9.10
2007,03,17,13,18,9.10
2007,03,17,13,19,9.10
2007,03,17,13,20,9.10
2007,03,17,13,21,9.10
2007,03,17,13,22,9.10
2007,03,17,13,23,9.10
2007,03,17,13,24,9.20
2007,03,17,13,25,9.20
2007,03,17,13,26,9.20
2007,03,17,13,27,9.20
2007,03,17,13,28,9.30
2007,03,17,13,29,9.30
2007,03,17,13,30,9.30
2007,03,17,13,31,9.30
2007,03,17,13,32,9.30
2007,03,17,13,33,9.30
2007,03,17,13,34,9.30
2007,03,17,13,35,9.30
2007,03,17,13,36,9.30
2007,03,17,13,37,9.30
2007,03,17,13,38,9.30
2007,03,17,13,39,9.30
2007,03,17,13,40,9.30
2007,03,17,13,41,9.30
2007,03,17,13,42,9.30
2007,03,17,13,43,9.30
2007,03,17,13,44,9.30
2007,03,17,13,45,9.30
2007,03,17,13,46,9.30
2007,03,17,13,47,9.30
2007,03,17,13,48,9.40
2007,03,17,13,49,9.40
2007,03,17,13,50,9.40
2007,03,17,13,51,9.40
2007,03,17,13,52,9.40
2007,03,17,13,53,9.40
2007,03,17,13,54,9.40
2007,03,17,13,55,9.40
2007,03,17,13,56,9.40
2007,03,17,13,57,9.40
2007,03,17,13,58,9.30
2007,03,17,13,59,9.30
2007,03,17,14,00,9.30
2007,03,17,14,01,9.40
2007,03,17,14,02,9.40
2007,03,17,14,03,9.40
2007,03,17,14,04,9.40
2007,03,17,14,05,9.40
2007,03,17,14,06,9.40
2007,03,17,14,07,9.40
2007,03,17,14,08,9.50
2007,03,17,14,09,9.50
2007,03,17,14,10,9.50
2007,03,17,14,11,9.60
2007,03,17,14,12,9.60
2007,03,17,14,13,9.60
2007,03,17,14,14,9.60
2007,03,17,14,15,9.60
2007,03,17,14,16,9.60
2007,03,17,14,17,9.60
2007,03,17,14,18,9.60
2007,03,17,14,19,9.60
2007,03,17,14,20,9.60
2007,03,17,14,21,9.60
2007,03,17,14,22,9.60
2007,03,17,14,23,9.60
2007,03,17,14,24,9.60
2007,03,17,14,25,9.60
2007,03,17,14,26,9.60
2007,03,17,14,27,9.60
2007,03,17,14,28,9.60
2007,03,17,14,29,9.60
2007,03,17,14,30,9.50
2007,03,17,14,31,9.50
2007,03,17,14,32,9.50
2007,03,17,14,33,9.50
2007,03,17,14,34,9.50
2007,03,17,14,35,9.50
2007,03,17,14,36,9.50
2007,03,17,14,37,9.50
2007,03,17,14,38,9.50
2007,03,17,14,39,9.60
2007,03,17,14,40,9.60
2007,03,17,14,41,9.60
2007,03,17,14,42,9.60
2007,03,17,14,43,9.60
2007,03,17,14,44,9.60
2007,03,17,14,45,9.60
2007,03,17,14,46,9.60
2007,03,17,14,47,9.60
2007,03,17,14,48,9.60
2007,03,17,14,49,9.60
2007,03,17,14,50,9.60
2007,03,17,14,51,9.60
2007,03,17,14,52,9.60
2007,03,17,14,53,9.60
2007,03,17,14,54,9.60
2007,03,17,14,55,9.60
2007,03,17,14,56,9.60
2007,03,17,14,57,9.60
2007,03,17,14,58,9.60
2007,03,17,14,59,9.60
2007,03,17,15,00,9.60
2007,03,17,15,01,9.60
2007,03,17,15,02,9.60
2007,03,17,15,03,9.60
2007,03,17,15,04,9.60
2007,03,17,15,05,9.60
2007,03,17,15,06,9.60
2007,03,17,15,07,9.60
2007,03,17,15,08,9.60
2007,03,17,15,09,9.60
2007,03,17,15,10,9.70
2007,03,17,15,11,9.70
2007,03,17,15,12,9.70
2007,03,17,15,13,9.70
2007,03,17,15,14,9.70
2007,03,17,15,15,9.70
2007,03,17,15,16,9.70
2007,03,17,15,17,9.70
2007,03,17,15,18,9.60
2007,03,17,15,19,9.60
2007,03,17,15,20,9.60
2007,03,17,15,21,9.60
2007,03,17,15,22,9.70
2007,03,17,15,23,9.70
2007,03,17,15,24,9.70
2007,03,17,15,25,9.70
2007,03,17,15,26,9.70
2007,03,17,15,27,9.70
2007,03,17,15,28,9.70
2007,03,17,15,29,9.70
2007,03,17,15,30,9.70
2007,03,17,15,31,9.70
2007,03,17,15,32,9.70
2007,03,17,15,33,9.70
2007,03,17,15,34,9.70
2007,03,17,15,35,9.70
2007,03,17,15,36,9.70
2007,03,17,15,37,9.70
2007,03,17,15,38,9.70
2007,03,17,15,39,9.70
2007,03,17,15,40,9.60
2007,03,17,15,41,9.70
2007,03,17,15,42,9.70
2007,03,17,15,43,9.70
2007,03,17,15,44,9.70
2007,03,17,15,45,9.70
2007,03,17,15,46,9.70
2007,03,17,15,47,9.70
2007,03,17,15,48,9.70
2007,03,17,15,49,9.70
2007,03,17,15,50,9.70
2007,03,17,15,51,9.70
2007,03,17,15,52,9.70
2007,03,17,15,53,9.70
2007,03,17,15,54,9.70
2007,03,17,15,55,9.70
2007,03,17,15,56,9.70
2007,03,17,15,57,9.70
2007,03,17,15,58,9.70
2007,03,17,15,59,9.70
2007,03,17,16,00,9.70
2007,03,17,16,01,9.70
2007,03,17,16,02,9.70
2007,03,17,16,03,9.70
2007,03,17,16,04,9.70
2007,03,17,16,05,9.70
2007,03,17,16,06,9.70
2007,03,17,16,07,9.80
2007,03,17,16,08,9.80
2007,03,17,16,09,9.80
2007,03,17,16,10,9.80
2007,03,17,16,11,9.80
2007,03,17,16,12,9.80
2007,03,17,16,13,9.80
2007,03,17,16,14,9.80
2007,03,17,16,15,9.80
2007,03,17,16,16,9.70
2007,03,17,16,17,9.70
2007,03,17,16,18,9.80
2007,03,17,16,19,9.70
2007,03,17,16,20,9.70
2007,03,17,16,21,9.70
2007,03,17,16,22,9.70
2007,03,17,16,23,9.70
2007,03,17,16,24,9.70
2007,03,17,16,25,9.70
2007,03,17,16,26,9.70
2007,03,17,16,27,9.70
2007,03,17,16,28,9.70
2007,03,17,16,29,9.70
2007,03,17,16,30,9.70
2007,03,17,16,31,9.70
2007,03,17,16,32,9.70
2007,03,17,16,33,9.70
2007,03,17,16,34,9.70
2007,03,17,16,35,9.70
2007,03,17,16,36,9.70
2007,03,17,16,37,9.70
2007,03,17,16,38,9.70
2007,03,17,16,39,9.70
2007,03,17,16,40,9.70
2007,03,17,16,41,9.70
2007,03,17,16,42,9.70
2007,03,17,16,43,9.70
2007,03,17,16,44,9.70
2007,03,17,16,45,9.70
2007,03,17,16,46,9.70
2007,03,17,16,47,9.70
2007,03,17,16,48,9.70
2007,03,17,16,49,9.70
2007,03,17,16,50,9.70
2007,03,17,16,51,9.70
2007,03,17,16,52,9.70
2007,03,17,16,53,9.70
2007,03,17,16,54,9.70
2007,03,17,16,55,9.70
2007,03,17,16,56,9.70
2007,03,17,16,57,9.70
2007,03,17,16,58,9.70
2007,03,17,16,59,9.70
2007,03,17,17,00,9.70
2007,03,17,17,01,9.70
2007,03,17,17,02,9.70
2007,03,17,17,03,9.70
2007,03,17,17,04,9.70
2007,03,17,17,05,9.70
2007,03,17,17,06,9.70
2007,03,17,17,07,9.70
2007,03,17,17,08,9.70
2007,03,17,17,09,9.70
2007,03,17,17,10,9.70
2007,03,17,17,11,9.70
2007,03,17,17,12,9.70
2007,03,17,17,13,9.70
2007,03,17,17,14,9.70
2007,03,17,17,15,9.70
2007,03,17,17,16,9.70
2007,03,17,17,17,9.70
2007,03,17,17,18,9.70
2007,03,17,17,19,9.70
2007,03,17,17,20,9.70
2007,03,17,17,21,9.80
2007,03,17,17,22,9.80
2007,03,17,17,23,9.80
2007,03,17,17,24,9.80
2007,03,17,17,25,9.80
2007,03,17,17,26,9.80
2007,03,17,17,27,9.80
2007,03,17,17,28,9.80
2007,03,17,17,29,9.80
2007,03,17,17,30,9.80
2007,03,17,17,31,9.80
2007,03,17,17,32,9.80
2007,03,17,17,33,9.80
2007,03,17,17,34,9.80
2007,03,17,17,35,9.80
2007,03,17,17,36,9.80
2007,03,17,17,37,9.80
2007,03,17,17,38,9.80
2007,03,17,17,39,9.80
2007,03,17,17,40,9.80
2007,03,17,17,41,9.80
2007,03,17,17,42,9.80
2007,03,17,17,43,9.80
2007,03,17,17,44,9.80
2007,03,17,17,45,9.80
2007,03,17,17,46,9.80
2007,03,17,17,47,9.80
2007,03,17,17,48,9.90
2007,03,17,17,49,9.90
2007,03,17,17,50,9.90
2007,03,17,17,51,9.90
2007,03,17,17,52,9.90
2007,03,17,17,53,9.80
2007,03,17,17,54,9.80
2007,03,17,17,55,9.80
2007,03,17,17,56,9.80
2007,03,17,17,57,9.80
2007,03,17,17,58,9.80
2007,03,17,17,59,9.80
2007,03,17,18,00,9.80
2007,03,17,18,01,9.70
2007,03,17,18,02,9.70
2007,03,17,18,03,9.70
2007,03,17,18,04,9.70
2007,03,17,18,05,9.70
2007,03,17,18,06,9.70